Skip Page Navigation
NASA JPL Caltech
NASA Logo - Jet Propulsion Laboratory + View the NASA Portal
+ Center for Near-Earth Object Studies
JPL Home Earth Solar System Stars & Galaxies Technology
JPL Solar System Dynamics
BODIES ORBITS EPHEMERIDES TOOLS PHYSICAL DATA DISCOVERY FAQ SITE MAP
IMPORTANT: The SSD Announcement email list is now available. Major changes are coming in the near future, including possible hostname and/or URL changes. To be notified of such changes, subscribe to this email list.

Please visit this page for more details.


JPL Small-Body Database Browser
Search: [ help ]  
136679 (1995 SK26)
Classification: Main-belt Asteroid          SPK-ID: 2136679
Ephemeris | Orbit Diagram | Orbital Elements | Mission Design | Physical Parameters | Discovery Circumstances ]

[ show orbit diagram ]
Orbital Elements at Epoch 2458600.5 (2019-Apr-27.0) TDB
Reference: JPL 18 (heliocentric ecliptic J2000)
 Element Value Uncertainty (1-sigma)   Units 
e .1347984165294661 4.4343e-08  
a 2.374743848730275 1.2563e-08 au
q 2.054632138258344 1.0444e-07 au
i 4.820422470044497 5.1596e-06 deg
node 8.383595027629726 5.0448e-05 deg
peri 145.4054179585465 5.3471e-05 deg
M 31.09166314102063 1.6366e-05 deg
tp 2458485.057682412012
(2019-Jan-01.55768241)
6.0796e-05 TDB
period 1336.668101129811
3.66
1.0607e-05
2.904e-08
d
yr
n .2693263942602594 2.1372e-09 deg/d
Q 2.694855559202205 1.4256e-08 au
  Orbit Determination Parameters
   # obs. used (total)      576  
   data-arc span      8635 days (23.64 yr)  
   first obs. used      1995-09-19  
   last obs. used      2019-05-11  
   planetary ephem.      DE431  
   SB-pert. ephem.      SB431-N16  
   condition code      0  
   norm. resid. RMS      .53119  
   source      ORB  
   producer      Otto Matic  
   solution date      2019-May-30 07:13:13  

Additional Information
 Earth MOID = 1.06702 au 
 Jupiter MOID = 2.2948 au 
 T_jup = 3.525 
[ show covariance matrix ]

Ephemeris | Orbit Diagram | Orbital Elements | Mission Design | Physical Parameters | Discovery Circumstances ]

Physical Parameter Table
Parameter Symbol Value Units Sigma Reference Notes
absolute magnitude H 16.1   n/a MPO436673  

136679 (1995 SK26)          Discovered 1995-Sep-19 by Spacewatch at Kitt Peak
Reference: 20061205/Numbers.arcLast Updated: 2006-12-13

Alternate Designations
 1995 SK26 = 2002 RS191 
Ephemeris | Orbit Diagram | Orbital Elements | Mission Design | Physical Parameters | Discovery Circumstances ]
ABOUT SSD CREDITS/AWARDS PRIVACY/COPYRIGHT GLOSSARY LINKS
FirstGov
(server date/time)  
NASA Home Page
Site Manager:   Ryan S. Park
Webmaster  Alan B. Chamberlin